Cooperstown, ND

6:36 PM CST on February 24, 2017 (GMT -0600)
Cooperstown

Weather History for KS32 - October, 2011

Change the Weather History Date:

Friday, October 7, 2011

  Actual Average (KJMS) Record (KJMS)
Temperature  
Mean Temperature 66 °F -  
Max Temperature 73 °F 60 °F 86 °F (1966)
Min Temperature 59 °F 36 °F 15 °F (1976)
Cooling Degree Days 1    
Growing Degree Days 16 (Base 50)    
Moisture  
Dew Point 43 °F    
Average Humidity 47    
Maximum Humidity 77    
Minimum Humidity 18    
Precipitation  
Precipitation 0.01 in - - ()
Sea Level Pressure  
Sea Level Pressure 29.54 in    
Wind  
Wind Speed 28 mph (SSW)    
Max Wind Speed 48 mph    
Max Gust Speed 61 mph    
Visibility 10 miles    
Events      
Averages and records for this station are not official NWS values.
T = Trace of Precipitation, MM = Missing Value Source: NWS Daily Summary

Daily Weather History Graph

Daily Weather History Graph

Search for Another Location

Airport or City:

Trip Planner

Search our weather history database for the weather conditions in past years. The results will help you decide how hot, cold, wet, or windy it might be!

Date:

Astronomy

Oct. 07, 2011 Rise Set
Actual Time 7:39 AM CDT 7:00 PM CDT
Civil Twilight 7:08 AM CDT 7:31 PM CDT
Nautical Twilight 6:33 AM CDT 8:06 PM CDT
Astronomical Twilight 5:57 AM CDT 8:42 PM CDT
Moon 4:56 PM CDT (10/7) 3:13 AM CDT (10/7)
Length of Visible Light 12h 22m
Length of Day
11h 21m
Waxing Gibbous, 83% of the Moon is Illuminated
Oct 7
Waxing Gibbous
Oct 11
Full
Oct 19
Last Quarter
Oct 26
New
Nov 2
First Quarter

Hourly Weather History & Observations

Time (CDT) Temp. Dew Point Humidity Pressure Visibility Wind Dir Wind Speed Gust Speed Precip Events Conditions
12:15 AM 69.8 °F 41.0 °F 35% 29.64 in 10.0 mi SSE 35.7 mph 41.4 mph N/A   Clear
12:55 AM 68.0 °F 44.6 °F 43% 29.67 in 9.0 mi South 24.2 mph 32.2 mph N/A   Mostly Cloudy
1:15 AM 68.0 °F 42.8 °F 40% 29.67 in 10.0 mi South 21.9 mph 26.5 mph N/A   Scattered Clouds
1:55 AM 62.6 °F 50.0 °F 63% 29.65 in 8.0 mi SSE 18.4 mph 25.3 mph 0.01 in   Partly Cloudy
2:15 AM 62.6 °F 50.0 °F 63% 29.64 in 10.0 mi SSE 19.6 mph 32.2 mph N/A   Clear
2:35 AM 62.6 °F 48.2 °F 59% 29.62 in 10.0 mi SSE 17.3 mph - N/A   Clear
2:55 AM 64.4 °F 46.4 °F 52% 29.62 in 10.0 mi SSE 16.1 mph - N/A   Clear
3:15 AM 64.4 °F 44.6 °F 49% 29.62 in 10.0 mi SSE 18.4 mph - N/A   Scattered Clouds
3:35 AM 66.2 °F 44.6 °F 46% 29.59 in 10.0 mi SSE 26.5 mph 35.7 mph N/A   Scattered Clouds
4:15 AM 62.6 °F 51.8 °F 68% 29.59 in 10.0 mi South 24.2 mph 33.4 mph N/A   Clear
4:35 AM 62.6 °F 51.8 °F 68% 29.59 in 10.0 mi South 27.6 mph 34.5 mph N/A   Partly Cloudy
4:55 AM 64.4 °F 51.8 °F 64% 29.58 in 10.0 mi South 26.5 mph 39.1 mph N/A   Partly Cloudy
5:55 AM 62.6 °F 53.6 °F 72% 29.57 in 10.0 mi South 25.3 mph 34.5 mph N/A   Clear
6:55 AM 62.6 °F 55.4 °F 77% 29.54 in 10.0 mi South 26.5 mph 34.5 mph N/A   Clear
7:35 AM 62.6 °F 53.6 °F 72% 29.54 in 10.0 mi South 21.9 mph 32.2 mph N/A   Clear
8:35 AM 64.4 °F 55.4 °F 73% 29.54 in 10.0 mi South 25.3 mph 31.1 mph N/A   Clear
9:35 AM 62.6 °F 55.4 °F 77% 29.55 in 10.0 mi SSE 21.9 mph 26.5 mph N/A   Mostly Cloudy
10:35 AM 66.2 °F 53.6 °F 64% 29.53 in 10.0 mi South 25.3 mph 38.0 mph N/A   Overcast
10:55 AM 66.2 °F 53.6 °F 64% 29.53 in 10.0 mi SSW 25.3 mph 36.8 mph N/A   Mostly Cloudy
11:15 AM 66.2 °F 53.6 °F 64% 29.53 in 10.0 mi South 31.1 mph 38.0 mph N/A   Overcast
11:35 AM 66.2 °F 53.6 °F 64% 29.51 in 10.0 mi South 32.2 mph 36.8 mph N/A   Mostly Cloudy
12:15 PM 68.0 °F 48.2 °F 49% 29.52 in 10.0 mi South 27.6 mph 35.7 mph N/A   Scattered Clouds
12:35 PM 69.8 °F 46.4 °F 43% 29.50 in 10.0 mi South 29.9 mph 39.1 mph N/A   Partly Cloudy
12:55 PM 69.8 °F 44.6 °F 40% 29.48 in 10.0 mi South 31.1 mph 38.0 mph N/A   Clear
1:15 PM 71.6 °F 41.0 °F 33% 29.46 in 10.0 mi South 33.4 mph 41.4 mph N/A   Clear
1:35 PM 71.6 °F 32.0 °F 23% 29.44 in 10.0 mi South 38.0 mph 47.2 mph N/A   Clear
2:15 PM 71.6 °F 28.4 °F 20% 29.44 in 8.0 mi South 46.0 mph 55.2 mph N/A   Clear
2:35 PM 71.6 °F 28.4 °F 20% 29.45 in 10.0 mi South 41.4 mph 49.5 mph N/A   Clear
3:15 PM 71.6 °F 26.6 °F 19% 29.43 in 9.0 mi South 48.3 mph 61.0 mph N/A   Clear
3:35 PM 73.4 °F 26.6 °F 18% 29.43 in 8.0 mi South 44.9 mph 61.0 mph N/A   Clear
3:55 PM 71.6 °F 26.6 °F 19% 29.44 in 8.0 mi SSW 43.7 mph 58.7 mph N/A   Clear
4:15 PM 73.4 °F 28.4 °F 19% 29.44 in 9.0 mi SSW 41.4 mph 52.9 mph N/A   Clear
4:35 PM 71.6 °F 30.2 °F 22% 29.45 in 8.0 mi SSW 36.8 mph 52.9 mph N/A   Clear
4:55 PM 71.6 °F 32.0 °F 23% 29.45 in 9.0 mi SSW 41.4 mph 57.5 mph N/A   Clear
5:15 PM 71.6 °F 32.0 °F 23% 29.46 in 9.0 mi SSW 35.7 mph 52.9 mph N/A   Clear
5:35 PM 71.6 °F 33.8 °F 25% 29.47 in 10.0 mi SSW 31.1 mph 44.9 mph N/A   Clear
5:55 PM 69.8 °F 35.6 °F 28% 29.47 in 7.0 mi SSW 35.7 mph 55.2 mph N/A   Clear
6:15 PM 69.8 °F 35.6 °F 28% 29.49 in 8.0 mi SSW 29.9 mph 51.8 mph N/A   Clear
6:35 PM 68.0 °F 35.6 °F 30% 29.49 in 10.0 mi SSW 32.2 mph 47.2 mph N/A   Clear
6:55 PM 68.0 °F 37.4 °F 33% 29.50 in 10.0 mi SSW 29.9 mph 38.0 mph N/A   Clear
7:15 PM 66.2 °F 37.4 °F 35% 29.52 in 10.0 mi SW 24.2 mph 32.2 mph N/A   Clear
7:35 PM 66.2 °F 39.2 °F 37% 29.54 in 10.0 mi SW 24.2 mph 33.4 mph N/A   Scattered Clouds
7:55 PM 64.4 °F 44.6 °F 49% 29.55 in 10.0 mi SW 29.9 mph 36.8 mph N/A   Partly Cloudy
8:15 PM 64.4 °F 44.6 °F 49% 29.55 in 10.0 mi SW 26.5 mph 39.1 mph N/A   Clear
8:35 PM 62.6 °F 44.6 °F 52% 29.56 in 10.0 mi SW 27.6 mph 35.7 mph N/A   Clear
8:55 PM 62.6 °F 44.6 °F 52% 29.57 in 10.0 mi SW 25.3 mph 35.7 mph N/A   Clear
9:15 PM 62.6 °F 44.6 °F 52% 29.57 in 10.0 mi SW 21.9 mph 36.8 mph N/A   Clear
9:35 PM 62.6 °F 46.4 °F 55% 29.58 in 10.0 mi SW 28.8 mph 36.8 mph N/A   Clear
9:55 PM 62.6 °F 46.4 °F 55% 29.59 in 10.0 mi SW 26.5 mph 36.8 mph N/A   Clear
10:15 PM 60.8 °F 46.4 °F 59% 29.60 in 10.0 mi SW 26.5 mph 38.0 mph N/A   Clear
10:35 PM 60.8 °F 46.4 °F 59% 29.61 in 10.0 mi WSW 27.6 mph 38.0 mph N/A   Clear
10:55 PM 60.8 °F 46.4 °F 59% 29.62 in 10.0 mi SW 28.8 mph 39.1 mph N/A   Clear
11:15 PM 59.0 °F 46.4 °F 63% 29.63 in 10.0 mi WSW 25.3 mph 32.2 mph N/A   Clear
11:35 PM 59.0 °F 48.2 °F 67% 29.64 in 10.0 mi WSW 28.8 mph 36.8 mph N/A   Clear
11:55 PM 59.0 °F 48.2 °F 67% 29.66 in 10.0 mi WSW 23.0 mph 33.4 mph N/A   Clear